CZ-6A DEB

Satellite information

Favourite Embed

Satellite Type and Status

DEBRISIN ORBIT

Key statistics

Satellite CZ-6A DEB at a glance.

Uptime

1077

Days in orbit

Revolutions

≈ 14.6

Per day

Orbit

SSO

Sun Synchronous Orbit

Inclination

98.6

Latest

Satellite identification and parameters

Extended collection of information and parameters for CZ-6A DEB.

Object identification

Identified? True

Debris? True

Object name: CZ-6A DEB

International designator: 2022-151JQ

Object number (NORAD): 54512

Object ID (CCSDS): 54512

Country: PEOPLES REPUBLIC OF CHINA (PRC)

Current information (Y/N): Y

RCS size: SMALL

Orbital parameters

Period: 98.535 minutes

Inclination: 98.6101 deg

SMA: 7066.774 km

Apoapsis: 757.649 km

Periapsis: 619.63 km

RAAN: 339.8712 deg

Eccentricy: 0.00976532

Argument of periapsis: 305.9663 deg

Mean anomaly: 53.2509 deg

Mean motion: 14.61406112 rev/day

Mean motion (dot): 0.00010804 rev/day2

B* drag term: 0.0020480099 1/REarth

Two-line elements (TLE)

Creation date: Oct. 23, 2025, 2:46 a.m.

Reference frame: TEME

Reference center: EARTH

Epoch: Oct. 22, 2025, 9:41 p.m. UTC

TLE line 0: 0 CZ-6A DEB

TLE line 1: 1 54512U 22151JQ 25295.90403412 .00010804 00000-0 20480-2 0 9993

TLE line 2: 2 54512 98.6101 339.8712 0097653 305.9663 53.2509 14.61406112153491

Live tracking on map

Real-time ground track for satellite CZ-6A DEB.

In-orbit conjunctions

A list of the most updated potential collisions computed for object CZ-6A DEB.

Target Orbit TCA Probability of collision Miss distance Type
CZ-6A DEB LEO 2025-03-31 09:16:42 0.0003085353 73.0 (m) DEBRIS
CZ-6A DEB SSO 2025-01-14 09:25:32 0.0001322362 89.0 (m) DEBRIS
OV1-5 DEB SSO 2024-11-10 21:26:02 0.0001155706 528.0 (m) DEBRIS

Associated space launch

Chinese satellite reported for atmospheric/ocean/environmental/spatial parameter research purposes, details TBD.

CZ-6A DEB was lifted into orbit during the mission ‘Long March 6A | Yunhai 3’, on board a Long March 6A space rocket.

The launch took place on Nov. 11, 2022, 10:52 p.m. from Launch Complex 9A.

For more information about the launch, click the button.

Launch to space Long March 6A | Yunhai 3
Long March 6A | Yunhai 3

Agency: N/A

Status: Launch Successful

Launch date: Nov. 11, 2022, 10:52 p.m. UTC

Rocket: Long March 6A

Launch pad: Launch Complex 9A

Location: Taiyuan Satellite Launch Center, People's Republic of China

...

Latest news about this satellite

There are no fresh news available about this satellite. Check back as we update our databases every day.


Newsletter sign-up

Weekly statistics, charts and insights to help you stay on top of the space industry.